Weather History for KPOF - January, 2014

Change the Weather History Date:

Wednesday, January 22, 2014

  Actual Average Record
Temperature  
Mean Temperature 29 °F -  
Max Temperature 39 °F 42 °F 68 °F (1944)
Min Temperature 19 °F 24 °F -13 °F (1930)
Degree Days  
Heating Degree Days 36    
Moisture  
Dew Point 11 °F    
Average Humidity 50    
Maximum Humidity 66    
Minimum Humidity 32    
Precipitation  
Precipitation 0.00 in - - ()
Sea Level Pressure  
Sea Level Pressure 30.19 in    
Wind  
Wind Speed 8 mph (WSW)    
Max Wind Speed 16 mph    
Max Gust Speed 23 mph    
Visibility 10 miles    
Events      
Averages and records for this station are not official NWS values.
T = Trace of Precipitation, MM = Missing Value Source: NWS Daily Summary

Daily Weather History Graph

Daily Weather History Graph

Search for Another Location

Airport or City:

Trip Planner

Search our weather history database for the weather conditions in past years. The results will help you decide how hot, cold, wet, or windy it might be!

Date:

Astronomy

Jan. 22, 2014 Rise Set
Actual Time 7:10 AM CST 5:16 PM CST
Civil Twilight 6:42 AM CST 5:43 PM CST
Nautical Twilight 6:10 AM CST 6:15 PM CST
Astronomical Twilight 5:39 AM CST 6:46 PM CST
Moon 11:37 PM CST (1/22) 10:21 AM CST (1/22)
Length of Visible Light 11h 01m
Length of Day
10h 06m
Waning Gibbous, 65% of the Moon is Illuminated
Jan 22
Waning Gibbous
Jan 23
Last Quarter
Jan 30
New
Feb 6
First Quarter
Feb 14
Full

Hourly Weather History & Observations

Time (CST) Temp. Windchill Dew Point Humidity Pressure Visibility Wind Dir Wind Speed Gust Speed Precip Events Conditions
12:53 AM 21.0 °F 16.2 °F 9.0 °F 60% 30.27 in 10.0 mi East 3.5 mph - N/A   Overcast
1:53 AM 19.9 °F 12.1 °F 8.1 °F 60% 30.24 in 10.0 mi ESE 5.8 mph - N/A   Overcast
2:53 AM 21.0 °F 14.6 °F 9.0 °F 60% 30.24 in 10.0 mi SSE 4.6 mph - N/A   Overcast
3:53 AM 21.0 °F 13.4 °F 9.0 °F 60% 30.22 in 10.0 mi SSE 5.8 mph - N/A   Overcast
4:53 AM 21.0 °F 11.4 °F 9.0 °F 60% 30.20 in 10.0 mi South 8.1 mph - N/A   Overcast
5:53 AM 21.9 °F 11.0 °F 10.0 °F 60% 30.21 in 10.0 mi SSW 10.4 mph - N/A   Overcast
6:53 AM 21.9 °F 10.4 °F 9.0 °F 58% 30.21 in 10.0 mi SSW 11.5 mph - N/A   Overcast
7:53 AM 23.0 °F 11.1 °F 10.0 °F 58% 30.21 in 10.0 mi SSW 12.7 mph - N/A   Overcast
8:53 AM 24.1 °F 13.1 °F 10.0 °F 55% 30.20 in 10.0 mi SSW 11.5 mph - N/A   Mostly Cloudy
9:53 AM 27.0 °F 14.7 °F 10.9 °F 51% 30.19 in 10.0 mi SW 16.1 mph - N/A   Clear
10:53 AM 28.9 °F 17.7 °F 12.0 °F 49% 30.17 in 10.0 mi SW 15.0 mph - N/A   Overcast
11:53 AM 32.0 °F 23.0 °F 12.9 °F 45% 30.12 in 10.0 mi SW 11.5 mph - N/A   Partly Cloudy
12:53 PM 36.0 °F 27.5 °F 12.9 °F 39% 30.09 in 10.0 mi WSW 12.7 mph 23.0 mph N/A   Clear
1:53 PM 37.9 °F 30.9 °F 12.9 °F 36% 30.07 in 10.0 mi West 10.4 mph 18.4 mph N/A   Clear
2:53 PM 39.9 °F 34.5 °F 12.0 °F 32% 30.07 in 10.0 mi NW 8.1 mph - N/A   Scattered Clouds
3:53 PM 39.9 °F 31.8 °F 14.0 °F 35% 30.10 in 10.0 mi NW 15.0 mph - N/A   Clear
4:53 PM 36.0 °F 27.1 °F 12.9 °F 39% 30.14 in 10.0 mi NNW 13.8 mph - N/A   Clear
5:53 PM 33.1 °F 26.9 °F 12.0 °F 42% 30.17 in 10.0 mi NW 6.9 mph - N/A   Clear
6:53 PM 30.0 °F 26.5 °F 10.9 °F 45% 30.19 in 10.0 mi WSW 3.5 mph - N/A   Clear
7:53 PM 27.0 °F 23.0 °F 17.1 °F 66% 30.22 in 10.0 mi NW 3.5 mph - N/A   Clear
8:53 PM 30.0 °F 25.2 °F 12.0 °F 47% 30.22 in 10.0 mi WNW 4.6 mph - N/A   Clear
9:53 PM 30.9 °F 24.3 °F 12.9 °F 47% 30.25 in 10.0 mi West 6.9 mph - N/A   Clear
10:53 PM 30.0 °F 24.1 °F 10.0 °F 43% 30.25 in 10.0 mi NW 5.8 mph - N/A   Clear
11:53 PM 28.0 °F - 12.0 °F 51% 30.27 in 10.0 mi Calm Calm - N/A   Clear